Dewpoint
44 40 37 41 44 46 47 50 49 49 50 51 50 45 46 47 48 48 51 52 53 53 55 60 61 62 64 65 65 65 66 67 68 70 70 69 68 69 71 70 71 71 71 72
34 38 40 42 46 47 48 47 48 48 50 51 48 46 46 47 48 48 50 52 53 54 55 60 62 62 64 65 65 66 67 68 70 70 70 71 71 71 71 71 71 71 71 71
31 32 40 44 45 45 45 45 46 46 51 53 52 50 47 48 48 49 50 52 53 54 55 57 61 62 63 64 65 67 67 68 68 71 71 70 69 71 71 71 70 71 71 72
30 32 36 39 43 44 40 43 45 47 51 49 50 45 48 47 47 48 48 50 52 53 55 55 61 62 63 63 66 68 69 68 69 72 70 68 67 67 69 69 70 71 72 73
28 31 34 38 38 40 41 45 44 45 50 49 48 45 46 48 47 47 48 49 51 53 54 55 57 61 63 64 66 68 69 69 69 72 71 69 68 68 69 71 71 71 72 72
29 30 32 37 40 44 46 46 46 48 48 43 44 42 43 46 46 48 49 50 50 52 53 55 55 58 62 64 66 69 69 69 70 71 71 70 69 70 71 70 71 72 72 73
28 28 28 40 42 44 42 41 39 39 38 37 39 41 41 46 48 48 48 50 50 51 53 54 55 57 59 64 66 68 71 70 70 70 71 71 71 69 70 71 71 70 71 72
26 24 32 31 35 37 42 39 37 37 38 39 41 35 37 44 47 48 48 47 47 52 53 54 55 56 59 62 66 67 71 70 71 72 70 72 71 73 72 71 71 70 70 70
24 25 29 36 40 36 37 40 44 45 44 39 40 34 37 44 45 44 44 43 45 50 53 53 56 57 61 62 67 67 68 70 70 70 73 72 72 72 73 72 71 71 71 72
24 23 27 28 34 38 40 44 41 46 36 34 32 31 35 39 41 40 41 42 45 49 51 54 57 59 61 63 68 69 69 70 71 70 71 73 73 72 73 73 72 72 72 71
22 22 20 24 27 38 40 40 44 42 39 38 31 32 37 37 39 37 41 41 43 46 50 56 59 60 61 65 69 70 70 70 72 72 71 71 72 74 74 73 73 73 73 72
19 17 16 16 25 39 38 39 43 39 35 40 38 31 37 36 37 38 37 36 41 47 50 55 59 60 62 65 69 69 70 70 71 72 71 71 70 71 72 73 73 72 73 73
18 16 15 14 24 30 36 37 39 42 36 35 30 30 38 42 38 42 50 56 55 58 65 65 67 68 66 64 65 68 69 70 70 71 71 70 71 70 71 71 73 73 73 72
34 16 15 14 22 28 34 39 38 34 34 34 29 33 41 43 50 59 63 64 66 67 68 68 70 71 73 73 73 73 72 72 72 71 71 70 70 70 70 70 70 70 71 70
16 13 24 29 32 30 33 35 34 32 34 31 30 35 39 45 55 61 64 64 65 66 68 69 71 72 73 73 72 71 70 70 70 69 69 68 68 69 69 68 68 69 69 68
16 19 37 25 30 33 32 32 33 30 36 32 29 32 40 59 62 62 62 63 65 67 68 68 69 69 70 71 70 70 69 69 69 68 68 67 67 67 67 67 67 67 68 68
14 31 30 23 36 33 30 30 30 29 33 31 28 44 59 59 60 61 62 63 65 67 67 68 68 68 68 68 69 68 68 67 67 66 66 66 66 65 64 64 64 65 64 64
17 33 32 29 33 29 32 31 32 31 34 36 46 55 59 59 60 62 63 64 66 67 67 68 68 67 67 67 66 67 67 66 66 65 65 64 62 62 62 62 63 64 64 63
18 23 24 29 32 31 32 30 34 34 38 49 57 58 59 61 62 62 64 65 66 67 67 68 68 67 66 66 66 65 64 64 65 65 64 63 61 61 61 61 62 61 61 60
23 23 23 31 30 29 32 31 39 43 48 56 57 59 59 59 58 60 62 65 66 67 66 66 66 67 66 65 64 63 62 63 64 65 65 63 61 61 61 60 60 60 59 59
19 26 21 36 31 30 32 40 42 42 49 56 57 58 58 56 58 61 63 64 65 66 65 65 65 65 66 65 64 62 62 63 65 65 64 64 63 62 61 60 59 58 58 59
18 24 25 31 28 25 34 32 29 34 54 57 57 58 59 60 61 62 64 64 64 64 65 64 65 65 65 64 64 63 63 64 64 63 62 61 60 59 60 60 59 58 57 57
24 27 32 25 33 34 36 30 39 52 55 57 57 59 60 60 61 62 63 64 64 64 64 66 66 64 64 64 64 63 63 65 64 60 60 59 58 57 57 56 55 56 57 56
30 31 26 23 27 39 39 51 48 53 55 56 57 60 60 60 61 62 63 63 64 65 64 64 64 63 63 64 65 65 66 65 63 59 58 57 55 54 55 56 55 55 56 56
33 30 30 29 31 38 42 55 53 55 56 58 60 61 61 61 62 62 63 63 63 64 64 65 64 63 63 63 64 64 65 64 62 61 59 58 55 54 52 51 52 54 51 52
44 42 34 28 31 32 41 57 60 59 59 60 61 61 61 61 62 63 63 63 63 63 64 64 63 62 62 62 63 63 62 60 60 60 62 61 58 55 54 54 53 49 47 47
Lifted_Index
1 0 -0 -0 -1 -0 -0 -1 -1 -1 -2 -2 -1 -1 -0 -0 -0 -0 -0 -1 -1 -1 -1 -2 -2 -2 -2 -3 -3 -3 -3 -3 -3 -3 -4 -3 -3 -4 -4 -3 -3 -3 -3 -3
1 1 0 -0 -1 -1 -1 -1 -1 -1 -2 -2 -2 -1 -1 -1 -1 -1 -1 -1 -1 -1 -1 -2 -2 -2 -2 -3 -3 -3 -3 -3 -3 -3 -4 -4 -3 -3 -4 -4 -3 -3 -3 -3
1 1 -0 -0 -1 -1 -1 -1 -1 -1 -2 -2 -1 -1 -1 -1 -1 -1 -1 -1 -1 -1 -2 -2 -2 -3 -3 -3 -3 -3 -3 -3 -3 -4 -4 -3 -3 -3 -4 -4 -3 -3 -3 -3
1 0 -0 -0 -1 -1 -1 -1 -1 -1 -1 -1 -1 -1 -1 -0 -0 -1 -1 -1 -1 -1 -1 -2 -2 -3 -3 -2 -3 -3 -3 -3 -4 -4 -4 -4 -3 -3 -4 -4 -4 -3 -3 -4
1 1 0 -0 -0 -0 -1 -1 -1 -0 -0 -0 -0 -1 -1 -0 0 0 0 0 -0 -0 -1 -1 -2 -2 -2 -3 -3 -3 -3 -3 -4 -5 -5 -4 -4 -4 -4 -4 -4 -4 -4 -4
2 1 1 0 -0 -0 -0 -0 0 0 1 1 0 -0 -1 -0 0 1 1 0 0 -0 -1 -1 -1 -1 -2 -3 -3 -4 -4 -3 -4 -5 -5 -5 -4 -4 -4 -4 -4 -4 -4 -4
2 1 1 0 -0 -0 -0 0 0 0 0 1 0 0 -0 0 1 1 1 1 0 -0 -0 -1 -1 -1 -2 -3 -4 -4 -4 -4 -4 -4 -5 -5 -5 -5 -5 -5 -5 -5 -5 -5
2 1 1 0 -0 -0 0 0 0 0 0 1 1 0 0 1 1 1 1 1 0 -0 -1 -1 -1 -2 -2 -3 -4 -5 -5 -5 -5 -5 -5 -5 -5 -6 -6 -6 -5 -5 -5 -5
1 1 0 -0 -0 -0 0 0 1 1 1 1 0 0 1 1 1 1 1 1 1 -0 -1 -1 -2 -2 -3 -4 -5 -6 -6 -6 -6 -6 -6 -6 -6 -6 -7 -6 -6 -6 -6 -6
1 0 -0 -0 -0 0 0 0 1 1 1 1 0 0 1 1 1 1 1 1 0 -0 -1 -1 -2 -2 -3 -4 -5 -6 -6 -6 -7 -7 -7 -7 -7 -7 -7 -7 -7 -7 -6 -6
1 1 -0 -0 -0 0 0 0 1 1 1 1 0 0 1 1 2 1 1 1 1 -0 -1 -1 -2 -2 -3 -4 -5 -6 -6 -6 -7 -7 -7 -7 -7 -7 -7 -7 -7 -7 -7 -7
2 1 0 -0 0 0 -0 0 0 1 1 1 1 1 1 1 1 1 1 1 1 0 -1 -2 -2 -3 -3 -4 -5 -5 -6 -6 -6 -7 -7 -7 -7 -7 -7 -7 -7 -7 -7 -6
2 1 0 -0 -0 -0 -0 0 0 0 0 1 1 1 1 1 0 -0 -0 -0 -1 -2 -3 -3 -4 -4 -4 -4 -5 -5 -6 -6 -6 -6 -6 -6 -7 -7 -7 -7 -7 -6 -6 -5
1 1 0 0 -0 -0 -0 -0 -0 0 0 1 1 1 1 0 -1 -2 -3 -4 -4 -5 -5 -5 -5 -5 -5 -5 -5 -5 -6 -5 -5 -5 -5 -6 -6 -6 -6 -6 -5 -5 -5 -4
1 1 0 0 0 -0 -0 -0 -0 0 0 1 1 1 0 -1 -3 -5 -6 -6 -6 -6 -6 -5 -5 -6 -6 -6 -5 -5 -5 -5 -5 -5 -5 -5 -5 -5 -4 -4 -4 -4 -4 -3
1 1 0 0 -0 -0 -0 -0 -0 0 0 1 1 1 -1 -3 -5 -6 -6 -6 -6 -6 -5 -5 -5 -5 -5 -5 -5 -5 -5 -4 -4 -4 -4 -3 -3 -3 -2 -2 -2 -2 -2 -2
0 0 0 -0 -0 -0 -0 -0 0 0 0 1 1 -0 -2 -4 -5 -6 -6 -6 -6 -5 -5 -4 -4 -4 -4 -4 -3 -3 -3 -3 -2 -2 -1 -1 0 1 1 1 1 1 0 0
1 1 0 -0 -1 -0 -0 0 -0 0 0 0 -1 -2 -4 -5 -5 -6 -6 -5 -5 -4 -4 -3 -3 -2 -2 -1 -1 -0 -0 0 0 1 1 2 3 4 4 4 3 3 2 2
1 1 0 -0 -0 -0 -0 -0 -0 -0 -0 -1 -3 -4 -4 -5 -5 -5 -5 -4 -4 -3 -3 -2 -2 -1 -0 1 1 2 2 2 2 2 2 3 4 5 5 5 5 4 4 3
1 1 0 -0 -0 -1 -0 -0 -0 -1 -2 -3 -4 -4 -4 -4 -4 -4 -4 -3 -3 -2 -2 -1 -1 -0 1 1 2 2 2 2 2 2 3 3 4 5 6 6 6 6 5 5
1 1 0 0 -0 -0 -0 -0 -0 -1 -2 -3 -4 -4 -4 -4 -3 -3 -3 -3 -2 -2 -1 -1 -0 0 1 2 2 2 2 2 2 2 3 3 4 5 5 6 6 6 6 6
1 1 1 0 0 -0 -0 -0 -0 -1 -3 -4 -4 -4 -4 -3 -3 -3 -3 -2 -2 -1 -1 -0 -0 0 1 1 2 2 1 2 2 3 4 4 5 6 6 6 6 6 6 6
1 1 1 1 0 0 0 0 -1 -2 -3 -4 -4 -4 -3 -3 -3 -3 -2 -2 -1 -1 -0 -0 -0 0 1 1 1 1 1 1 3 4 5 5 6 6 6 6 6 6 6 6
1 1 1 1 0 0 -0 -0 -1 -2 -3 -3 -4 -4 -3 -3 -3 -3 -2 -2 -1 -1 -1 -1 -1 -0 0 0 0 0 0 1 3 5 5 5 5 5 5 5 5 5 5 5
1 1 1 0 0 0 -0 -1 -2 -3 -3 -3 -4 -4 -4 -4 -4 -3 -2 -2 -2 -2 -2 -1 -1 -0 0 0 0 0 1 2 3 4 4 4 4 4 4 4 5 5 6 6
1 1 1 0 1 0 -1 -2 -3 -3 -3 -4 -4 -4 -4 -4 -4 -3 -3 -2 -2 -2 -2 -1 -1 -0 0 0 0 1 2 2 2 3 3 3 3 3 4 4 5 6 7 7